Location: Karlovy Vary
(50.2167°N, 12.9000°E)
Time: 01:51:41
(UTC+01:00)

ISS - Visible Passes

Search period start: 21 November 2017 00:00
Search period end: 01 December 2017 00:00
Orbit: 402 x 407 km, 51.6° (Epoch: 21 November)

Date Brightness Start Highest point End Pass type
(mag) Time Alt. Az. Time Alt. Az. Time Alt. Az.
28 Nov -1.7 18:16:20 10° SSW 18:17:53 18° SSE 18:17:53 18° SSE visible
29 Nov -1.5 17:25:08 10° SSE 17:26:42 13° SE 17:27:47 11° ESE visible
29 Nov -1.2 18:59:24 10° SW 19:00:27 19° SW 19:00:27 19° SW visible
30 Nov -3.0 18:07:16 10° SW 18:10:17 36° SSE 18:10:17 36° SSE visible
